TimeEST,TemperatureF,Dew PointF,Humidity,Sea Level PressureIn,VisibilityMPH,Wind Direction,Wind SpeedMPH,Gust SpeedMPH,PrecipitationIn,Events,Conditions,WindDirDegrees,DateUTC
12:15 AM,37.4,35.6,93,30.01,10.0,Calm,Calm,-,N/A,,Overcast,0,2013-02-16 05:15:00
12:35 AM,37.4,35.6,93,30.02,10.0,Calm,Calm,-,N/A,,Mostly Cloudy,0,2013-02-16 05:35:00
12:55 AM,35.6,33.8,93,30.01,10.0,Calm,Calm,-,N/A,,Scattered Clouds,0,2013-02-16 05:55:00
1:15 AM,35.6,33.8,93,30.01,10.0,Calm,Calm,-,N/A,,Mostly Cloudy,0,2013-02-16 06:15:00
1:35 AM,35.6,35.6,100,30.01,5.0,SSE,3.5,-,N/A,,Overcast,160,2013-02-16 06:35:00
1:55 AM,33.8,33.8,100,30.01,3.0,Calm,Calm,-,N/A,,Overcast,0,2013-02-16 06:55:00
2:15 AM,35.6,35.6,100,30.01,6.0,Calm,Calm,-,N/A,,Overcast,0,2013-02-16 07:15:00
2:35 AM,35.6,35.6,100,29.99,7.0,Calm,Calm,-,N/A,,Overcast,0,2013-02-16 07:35:00
2:55 AM,35.6,35.6,100,30.00,5.0,Calm,Calm,-,N/A,,Overcast,0,2013-02-16 07:55:00
3:15 AM,35.6,35.6,100,29.98,7.0,Calm,Calm,-,N/A,,Overcast,0,2013-02-16 08:15:00
3:35 AM,35.6,35.6,100,29.98,8.0,West,3.5,-,N/A,,Overcast,280,2013-02-16 08:35:00
3:55 AM,35.6,35.6,100,29.98,7.0,Calm,Calm,-,N/A,,Overcast,0,2013-02-16 08:55:00
4:15 AM,35.6,33.8,93,29.97,5.0,Calm,Calm,-,N/A,,Overcast,0,2013-02-16 09:15:00
4:35 AM,35.6,33.8,93,29.97,4.0,Calm,Calm,-,N/A,,Mostly Cloudy,0,2013-02-16 09:35:00
4:55 AM,33.8,33.8,100,29.97,2.0,Calm,Calm,-,N/A,,Scattered Clouds,0,2013-02-16 09:55:00
5:15 AM,33.8,33.8,100,29.97,0.8,Calm,Calm,-,N/A,,Unknown,0,2013-02-16 10:15:00
5:35 AM,33.8,33.8,100,29.98,0.8,Calm,Calm,-,N/A,,Mostly Cloudy,0,2013-02-16 10:35:00
5:55 AM,33.8,33.8,100,29.98,3.0,Calm,Calm,-,N/A,,Mostly Cloudy,0,2013-02-16 10:55:00
6:15 AM,33.8,32.0,93,29.99,1.8,South,3.5,-,N/A,,Overcast,180,2013-02-16 11:15:00
6:35 AM,33.8,33.8,100,29.98,1.8,Calm,Calm,-,N/A,,Overcast,0,2013-02-16 11:35:00
6:55 AM,33.8,32.0,93,29.98,1.5,Calm,Calm,-,N/A,,Overcast,0,2013-02-16 11:55:00
7:15 AM,33.8,33.8,100,29.98,2.0,Calm,Calm,-,N/A,,Overcast,0,2013-02-16 12:15:00
7:35 AM,33.8,33.8,100,29.99,2.5,Calm,Calm,-,N/A,,Mostly Cloudy,0,2013-02-16 12:35:00
7:55 AM,33.8,33.8,100,29.98,7.0,North,3.5,-,N/A,,Mostly Cloudy,350,2013-02-16 12:55:00
8:55 AM,37.4,37.4,100,29.97,10.0,North,9.2,-,N/A,,Clear,10,2013-02-16 13:55:00
9:50 AM,37.4,37.4,100,29.96,10.0,North,12.7,17.3,N/A,,Scattered Clouds,10,2013-02-16 14:50:00
10:50 AM,39.2,37.4,93,29.96,10.0,North,15.0,-,N/A,,Mostly Cloudy,360,2013-02-16 15:50:00
11:50 AM,39.2,37.4,93,29.94,10.0,WNW,13.8,-,N/A,,Mostly Cloudy,300,2013-02-16 16:50:00
12:50 PM,39.2,35.6,87,29.91,10.0,North,11.5,-,N/A,,Mostly Cloudy,360,2013-02-16 17:50:00
2:50 PM,37.4,35.6,93,29.88,10.0,North,8.1,-,N/A,,Overcast,350,2013-02-16 19:50:00
5:45 PM,35.6,23.0,60,29.88,10.0,North,10.4,-,N/A,,Overcast,350,2013-02-16 22:45:00
5:55 PM,35.6,23.0,60,29.88,10.0,NNW,10.4,-,N/A,,Overcast,340,2013-02-16 22:55:00
6:15 PM,35.6,23.0,60,29.88,10.0,North,12.7,17.3,N/A,,Overcast,350,2013-02-16 23:15:00
6:35 PM,35.6,21.2,56,29.88,10.0,North,13.8,19.6,N/A,,Overcast,350,2013-02-16 23:35:00
6:55 PM,35.6,21.2,56,29.88,10.0,NNW,13.8,-,N/A,,Overcast,340,2013-02-16 23:55:00
7:15 PM,33.8,21.2,60,29.89,10.0,NNW,10.4,-,N/A,,Overcast,340,2013-02-17 00:15:00
7:35 PM,33.8,21.2,60,29.89,10.0,North,11.5,17.3,N/A,,Overcast,350,2013-02-17 00:35:00
7:55 PM,33.8,21.2,60,29.88,10.0,North,12.7,16.1,N/A,,Overcast,350,2013-02-17 00:55:00
8:15 PM,33.8,21.2,60,29.88,10.0,NNW,9.2,-,N/A,,Overcast,340,2013-02-17 01:15:00
8:35 PM,33.8,17.6,52,29.88,10.0,NNW,15.0,25.3,N/A,,Overcast,340,2013-02-17 01:35:00
8:55 PM,33.8,17.6,52,29.88,10.0,NNW,13.8,18.4,N/A,,Overcast,340,2013-02-17 01:55:00
9:15 PM,33.8,17.6,52,29.88,10.0,NNW,12.7,19.6,N/A,,Overcast,340,2013-02-17 02:15:00
9:35 PM,33.8,17.6,52,29.88,10.0,NNW,15.0,-,N/A,,Overcast,340,2013-02-17 02:35:00
9:55 PM,33.8,17.6,52,29.87,10.0,NNW,11.5,-,N/A,,Overcast,330,2013-02-17 02:55:00
10:15 PM,32.0,17.6,55,29.88,10.0,NNW,10.4,17.3,N/A,,Scattered Clouds,330,2013-02-17 03:15:00
10:35 PM,32.0,19.4,60,29.88,10.0,NNW,11.5,20.7,N/A,,Clear,330,2013-02-17 03:35:00
10:55 PM,30.2,17.6,60,29.87,10.0,NNW,17.3,23.0,N/A,,Clear,330,2013-02-17 03:55:00
11:15 PM,30.2,17.6,60,29.87,10.0,NNW,18.4,25.3,N/A,,Clear,330,2013-02-17 04:15:00
11:35 PM,30.2,17.6,60,29.86,10.0,NW,11.5,-,N/A,,Clear,320,2013-02-17 04:35:00
11:55 PM,28.4,17.6,64,29.86,10.0,NNW,10.4,-,N/A,,Clear,330,2013-02-17 04:55:00